Location: Mountain Grove
(34.0887°N, 86.6172°W)
Time: 21:56:25
(UTC+00:00)

Nadezhda 4 Rocket - Pass Details

Date: 14 July 2020
Orbit: 951 x 991 km, 82.9° (Epoch: 08 August)

Event Time Altitude Azimuth Distance (km) Brightness Sun altitude
Rises 10:07:25 0° 345° (NNW) 3,708 7.3 -7.7°
Reaches altitude 10° 10:10:04 10° 339° (NNW) 2,757 6.5 -7.3°
Maximum altitude 10:15:57 42° 271° (W) 1,382 4.5 -6.2°
Drops below altitude 10° 10:21:47 10° 202° (SSW) 2,738 5.9 -5.2°
Sets 10:24:25 0° 195° (SSW) 3,679 6.6 -4.7°
